{"data":{"norad_id":49256,"epoch":"2026-09-20T22:47:34.001376Z","epoch_age_seconds":40134,"freshness":"FRESH","line1":"1 49256U 21086A   26263.94969909  .00002988  00000+0  19405-3 0  9995","line2":"2 49256  97.6581  26.6187 0030413 196.3363 163.6888 15.08454899275171","mean_motion":15.08454899,"eccentricity":0.0030413,"inclination_deg":97.6581,"raan_deg":26.6187,"arg_perigee_deg":196.3363,"mean_anomaly_deg":163.6888,"bstar":0.00019405,"rev_number":27517,"period_min":95.461919408702,"perigee_km":519.8778087732,"apogee_km":561.96366937689,"semimajor_km":6919.057739075,"source":"CELESTRAK","updated_at":"2026-09-21T09:00:08.030782Z"}}